| time (UTC) | temp F | wind direction | speed MPH | gust MPH | rain 1hr in | rain 24hr in | rain mn in | humidity % | barometer mb |
| 20260506114208 | 60 | 185 | 2.0 | 4.0 | 0.00 | 0.00 | 0.00 | 45 | 1012.9 |
| 20260506113308 | 61 | 195 | 1.0 | 4.0 | 0.00 | 0.00 | 0.00 | 45 | 1012.9 |
| 20260506112408 | 60 | 199 | 0.0 | 4.0 | 0.00 | 0.00 | 0.00 | 46 | 1012.8 |
| 20260506111508 | 60 | 0 | 0.0 | 0.0 | 0.00 | 0.00 | 0.00 | 48 | 1012.8 |
| 20260506110608 | 59 | 0 | 0.0 | 0.0 | 0.00 | 0.00 | 0.00 | 49 | 1012.7 |
| 20260506105708 | 59 | 0 | 0.0 | 0.0 | 0.00 | 0.00 | 0.00 | 49 | 1012.7 |
| 20260506103908 | 60 | 252 | 0.0 | 2.0 | 0.00 | 0.00 | 0.00 | 47 | 1012.6 |
| 20260506103008 | 60 | 252 | 1.0 | 2.0 | 0.00 | 0.00 | 0.00 | 46 | 1012.5 |
| 20260506102108 | 60 | 252 | 0.0 | 2.0 | 0.00 | 0.00 | 0.00 | 46 | 1012.4 |
| 20260506101208 | 60 | 0 | 0.0 | 0.0 | 0.00 | 0.00 | 0.00 | 47 | 1012.3 |
| 20260506100308 | 60 | 0 | 0.0 | 0.0 | 0.00 | 0.00 | 0.00 | 46 | 1012.2 |
| 20260506095408 | 60 | 0 | 0.0 | 0.0 | 0.00 | 0.00 | 0.00 | 46 | 1012.3 |
| 20260506094508 | 60 | 0 | 0.0 | 0.0 | 0.00 | 0.00 | 0.00 | 45 | 1012.2 |
| 20260506093608 | 61 | 252 | 0.0 | 1.0 | 0.00 | 0.00 | 0.00 | 45 | 1012.1 |
| 20260506092708 | 61 | 0 | 0.0 | 0.0 | 0.00 | 0.00 | 0.00 | 44 | 1012.1 |
| 20260506091808 | 61 | 0 | 0.0 | 0.0 | 0.00 | 0.00 | 0.00 | 44 | 1012.1 |
| 20260506090907 | 61 | 0 | 0.0 | 0.0 | 0.00 | 0.00 | 0.00 | 44 | 1012.1 |
| 20260506090007 | 62 | 0 | 0.0 | 0.0 | 0.00 | 0.00 | 0.00 | 42 | 1012.1 |
| 20260506085107 | 63 | 252 | 1.0 | 2.0 | 0.00 | 0.00 | 0.00 | 41 | 1012.0 |
| 20260506084207 | 64 | 250 | 3.0 | 5.0 | 0.00 | 0.00 | 0.00 | 40 | 1012.1 |
| 20260506082407 | 64 | 251 | 2.0 | 6.0 | 0.00 | 0.00 | 0.00 | 40 | 1011.9 |
| 20260506080607 | 63 | 276 | 1.0 | 4.0 | 0.00 | 0.00 | 0.00 | 40 | 1011.9 |
| 20260506073008 | 63 | 278 | 0.0 | 2.0 | 0.00 | 0.00 | 0.00 | 38 | 1011.8 |
| 20260506072109 | 64 | 278 | 0.0 | 2.0 | 0.00 | 0.00 | 0.00 | 37 | 1011.7 |
| 20260506071207 | 64 | 0 | 0.0 | 0.0 | 0.00 | 0.00 | 0.00 | 38 | 1011.7 |
| 20260506070308 | 64 | 0 | 0.0 | 0.0 | 0.00 | 0.00 | 0.00 | 37 | 1011.7 |
| 20260506061807 | 64 | 280 | 0.0 | 1.0 | 0.00 | 0.00 | 0.00 | 36 | 1011.4 |
| 20260506060907 | 64 | 280 | 0.0 | 1.0 | 0.00 | 0.00 | 0.00 | 36 | 1011.3 |
| 20260506050607 | 68 | 274 | 4.0 | 8.0 | 0.00 | 0.00 | 0.00 | 31 | 1011.0 |
| 20260506043907 | 69 | 254 | 4.0 | 8.0 | 0.00 | 0.00 | 0.00 | 30 | 1010.6 |
| 20260506043007 | 70 | 255 | 3.0 | 7.0 | 0.00 | 0.00 | 0.00 | 30 | 1010.7 |
| 20260506042107 | 69 | 255 | 4.0 | 6.0 | 0.00 | 0.00 | 0.00 | 30 | 1010.6 |
| 20260506041207 | 70 | 251 | 3.0 | 9.0 | 0.00 | 0.00 | 0.00 | 30 | 1010.5 |
| 20260506040307 | 70 | 250 | 3.0 | 8.0 | 0.00 | 0.00 | 0.00 | 29 | 1010.4 |
| 20260506035407 | 70 | 247 | 5.0 | 8.0 | 0.00 | 0.00 | 0.00 | 29 | 1010.2 |
| 20260506033608 | 71 | 264 | 5.0 | 10.0 | 0.00 | 0.00 | 0.00 | 28 | 1010.1 |
| 20260506031807 | 72 | 258 | 6.0 | 11.0 | 0.00 | 0.00 | 0.00 | 27 | 1009.8 |
| 20260506030907 | 72 | 261 | 6.0 | 11.0 | 0.00 | 0.00 | 0.00 | 27 | 1009.7 |
| 20260506030007 | 72 | 263 | 7.0 | 11.0 | 0.00 | 0.00 | 0.00 | 26 | 1009.5 |
| 20260506025107 | 72 | 265 | 7.0 | 11.0 | 0.00 | 0.00 | 0.00 | 26 | 1009.4 |
| 20260506024208 | 72 | 266 | 8.0 | 12.0 | 0.00 | 0.00 | 0.00 | 26 | 1009.3 |
| 20260506023307 | 73 | 264 | 7.0 | 12.0 | 0.00 | 0.00 | 0.00 | 26 | 1009.2 |
| 20260506022408 | 73 | 263 | 7.0 | 12.0 | 0.00 | 0.00 | 0.00 | 26 | 1009.0 |
| 20260506021508 | 73 | 263 | 8.0 | 12.0 | 0.00 | 0.00 | 0.00 | 26 | 1008.8 |
| 20260506020607 | 74 | 259 | 8.0 | 16.0 | 0.00 | 0.00 | 0.00 | 26 | 1008.7 |
| 20260506015707 | 74 | 258 | 8.0 | 14.0 | 0.00 | 0.00 | 0.00 | 26 | 1008.7 |
| 20260506013907 | 75 | 269 | 9.0 | 16.0 | 0.00 | 0.00 | 0.00 | 25 | 1008.5 |
| 20260506012107 | 76 | 275 | 9.0 | 15.0 | 0.00 | 0.00 | 0.00 | 25 | 1008.4 |
| 20260506004507 | 77 | 280 | 10.0 | 17.0 | 0.00 | 0.00 | 0.00 | 24 | 1008.1 |
| 20260506003607 | 78 | 273 | 9.0 | 17.0 | 0.00 | 0.00 | 0.00 | 23 | 1008.2 |
| 20260506002707 | 78 | 281 | 6.0 | 15.0 | 0.00 | 0.00 | 0.00 | 25 | 1008.0 |
| 20260506001807 | 78 | 245 | 6.0 | 12.0 | 0.00 | 0.00 | 0.00 | 25 | 1008.0 |
| 20260506000907 | 78 | 246 | 9.0 | 18.0 | 0.00 | 0.00 | 0.00 | 25 | 1007.9 |
| 20260506000007 | 79 | 268 | 9.0 | 18.0 | 0.00 | 0.00 | 0.00 | 24 | 1007.9 |
| 20260505234207 | 79 | 270 | 11.0 | 21.0 | 0.00 | 0.00 | 0.00 | 24 | 1007.8 |
| 20260505233307 | 79 | 272 | 9.0 | 16.0 | 0.00 | 0.00 | 0.00 | 23 | 1007.8 |
| 20260505232407 | 77 | 290 | 9.0 | 16.0 | 0.00 | 0.00 | 0.00 | 26 | 1007.9 |
| 20260505231507 | 78 | 273 | 9.0 | 16.0 | 0.00 | 0.00 | 0.00 | 25 | 1007.9 |
| 20260505230607 | 79 | 255 | 6.0 | 16.0 | 0.00 | 0.00 | 0.00 | 25 | 1008.0 |
| 20260505224807 | 79 | 273 | 8.0 | 16.0 | 0.00 | 0.00 | 0.00 | 25 | 1007.9 |
| 20260505223907 | 81 | 250 | 8.0 | 15.0 | 0.00 | 0.00 | 0.00 | 24 | 1008.2 |
| 20260505222107 | 79 | 273 | 9.0 | 16.0 | 0.00 | 0.00 | 0.00 | 26 | 1008.3 |
| 20260505220306 | 81 | 269 | 10.0 | 20.0 | 0.00 | 0.00 | 0.00 | 24 | 1008.5 |
| 20260505215406 | 81 | 268 | 7.0 | 17.0 | 0.00 | 0.00 | 0.00 | 24 | 1008.4 |
| 20260505214508 | 79 | 264 | 9.0 | 16.0 | 0.00 | 0.00 | 0.00 | 26 | 1008.5 |
| 20260505213607 | 80 | 270 | 7.0 | 16.0 | 0.00 | 0.00 | 0.00 | 25 | 1008.5 |
| 20260505212706 | 81 | 236 | 6.0 | 13.0 | 0.00 | 0.00 | 0.00 | 25 | 1008.6 |
| 20260505211806 | 82 | 240 | 7.0 | 18.0 | 0.00 | 0.00 | 0.00 | 24 | 1008.8 |
| 20260505210907 | 80 | 246 | 7.0 | 15.0 | 0.00 | 0.00 | 0.00 | 27 | 1008.8 |
| 20260505210007 | 79 | 179 | 5.0 | 16.0 | 0.00 | 0.00 | 0.00 | 25 | 1008.9 |
| 20260505205107 | 81 | 222 | 7.0 | 15.0 | 0.00 | 0.00 | 0.00 | 25 | 1009.0 |
| 20260505204208 | 81 | 258 | 8.0 | 25.0 | 0.00 | 0.00 | 0.00 | 26 | 1009.0 |
| 20260505203307 | 80 | 252 | 6.0 | 15.0 | 0.00 | 0.00 | 0.00 | 28 | 1009.1 |
| 20260505202406 | 81 | 243 | 6.0 | 14.0 | 0.00 | 0.00 | 0.00 | 28 | 1009.1 |
| 20260505201507 | 77 | 221 | 4.0 | 15.0 | 0.00 | 0.00 | 0.00 | 32 | 1009.3 |
| 20260505200606 | 77 | 193 | 6.0 | 11.0 | 0.00 | 0.00 | 0.00 | 33 | 1009.3 |
| 20260505193907 | 77 | 274 | 7.0 | 14.0 | 0.00 | 0.00 | 0.00 | 35 | 1009.4 |
| 20260505193007 | 79 | 221 | 5.0 | 12.0 | 0.00 | 0.00 | 0.00 | 34 | 1009.5 |
| 20260505192107 | 76 | 191 | 6.0 | 11.0 | 0.00 | 0.00 | 0.00 | 36 | 1009.5 |
| 20260505191206 | 76 | 239 | 5.0 | 16.0 | 0.00 | 0.00 | 0.00 | 36 | 1009.7 |
| 20260505190306 | 77 | 198 | 5.0 | 12.0 | 0.00 | 0.00 | 0.00 | 35 | 1009.8 |
| 20260505183606 | 76 | 214 | 5.0 | 13.0 | 0.00 | 0.00 | 0.00 | 37 | 1010.0 |
| 20260505182707 | 76 | 210 | 5.0 | 13.0 | 0.00 | 0.00 | 0.00 | 37 | 1010.1 |
| 20260505181806 | 76 | 199 | 6.0 | 13.0 | 0.00 | 0.00 | 0.00 | 38 | 1010.2 |
| 20260505180906 | 75 | 193 | 5.0 | 11.0 | 0.00 | 0.00 | 0.00 | 38 | 1010.1 |
| 20260505180006 | 74 | 195 | 4.0 | 11.0 | 0.00 | 0.00 | 0.00 | 40 | 1010.2 |
| 20260505175106 | 73 | 223 | 5.0 | 10.0 | 0.00 | 0.00 | 0.00 | 45 | 1010.2 |
| 20260505174206 | 72 | 258 | 6.0 | 13.0 | 0.00 | 0.00 | 0.00 | 47 | 1010.2 |
| 20260505173306 | 74 | 293 | 3.0 | 9.0 | 0.00 | 0.00 | 0.00 | 45 | 1010.2 |
| 20260505172406 | 73 | 265 | 5.0 | 9.0 | 0.00 | 0.00 | 0.00 | 48 | 1010.2 |
| 20260505171507 | 74 | 276 | 7.0 | 11.0 | 0.00 | 0.00 | 0.00 | 48 | 1010.3 |
| 20260505165706 | 73 | 303 | 5.0 | 11.0 | 0.00 | 0.00 | 0.00 | 49 | 1010.2 |
| 20260505164806 | 73 | 233 | 4.0 | 12.0 | 0.00 | 0.00 | 0.00 | 47 | 1010.2 |
| 20260505163906 | 74 | 228 | 4.0 | 10.0 | 0.00 | 0.00 | 0.00 | 47 | 1010.2 |
| 20260505163008 | 74 | 257 | 4.0 | 11.0 | 0.00 | 0.00 | 0.00 | 47 | 1010.3 |
| 20260505162106 | 70 | 232 | 2.0 | 8.0 | 0.00 | 0.00 | 0.00 | 52 | 1010.4 |
| 20260505161206 | 69 | 193 | 3.0 | 10.0 | 0.00 | 0.00 | 0.00 | 53 | 1010.4 |
| 20260505160307 | 69 | 200 | 3.0 | 10.0 | 0.00 | 0.00 | 0.00 | 53 | 1010.4 |
| 20260505152706 | 69 | 227 | 3.0 | 7.0 | 0.00 | 0.00 | 0.00 | 55 | 1010.1 |
| 20260505151807 | 69 | 213 | 3.0 | 7.0 | 0.00 | 0.00 | 0.00 | 56 | 1010.2 |
| 20260505150907 | 68 | 184 | 3.0 | 7.0 | 0.00 | 0.00 | 0.00 | 57 | 1010.0 |
| 20260505140606 | 66 | 189 | 3.0 | 9.0 | 0.00 | 0.00 | 0.00 | 61 | 1010.0 |